TimeEDT,TemperatureF,Dew PointF,Humidity,Sea Level PressureIn,VisibilityMPH,Wind Direction,Wind SpeedMPH,Gust SpeedMPH,PrecipitationIn,Events,Conditions,WindDirDegrees,DateUTC
12:15 AM,49.3,48.7,98,29.04,10.0,NW,11.5,-,N/A,Rain,Rain,320,2013-11-01 04:15:00
12:34 AM,49.1,48.6,98,29.05,10.0,NNW,9.2,-,N/A,Rain,Light Rain,330,2013-11-01 04:34:00
12:55 AM,49.1,48.4,97,29.02,10.0,NNW,10.4,-,N/A,Rain,Rain,330,2013-11-01 04:55:00
1:15 AM,48.7,48.2,98,29.01,10.0,NNW,10.4,-,N/A,Rain,Light Rain,330,2013-11-01 05:15:00
1:35 AM,48.7,48.2,98,29.01,10.0,NW,11.5,17.3,N/A,,Light Drizzle,320,2013-11-01 05:35:00
1:55 AM,48.7,48.2,98,29.01,10.0,NW,11.5,-,N/A,Rain,Light Rain,310,2013-11-01 05:55:00
2:15 AM,48.4,47.8,98,29.01,7.0,WNW,12.7,20.7,N/A,Rain,Rain,300,2013-11-01 06:15:00
2:35 AM,48.2,47.5,97,29.01,7.0,WNW,12.7,21.9,N/A,Rain,Rain,300,2013-11-01 06:35:00
2:55 AM,48.2,47.3,97,29.01,7.0,WNW,15.0,23.0,N/A,Rain,Rain,300,2013-11-01 06:55:00
3:14 AM,47.8,47.3,98,29.01,7.0,WNW,16.1,25.3,N/A,Rain,Rain,300,2013-11-01 07:14:00
3:35 AM,47.5,46.8,97,29.02,7.0,WNW,15.0,26.5,N/A,Rain,Rain,300,2013-11-01 07:35:00
3:55 AM,47.3,46.6,97,29.03,3.0,NW,19.6,24.2,N/A,Rain,Light Rain,310,2013-11-01 07:55:00
4:14 AM,47.3,46.6,97,29.04,4.0,NW,16.1,19.6,N/A,Rain,Light Rain,310,2013-11-01 08:14:00
4:35 AM,47.3,46.4,97,29.05,7.0,WNW,15.0,24.2,N/A,Rain,Light Rain,300,2013-11-01 08:35:00
4:55 AM,46.8,46.0,97,29.06,10.0,WNW,23.0,31.1,N/A,Rain,Light Rain,300,2013-11-01 08:55:00
5:15 AM,46.4,45.1,95,29.08,10.0,NW,16.1,27.6,N/A,Rain,Light Rain,310,2013-11-01 09:15:00
5:35 AM,45.7,44.6,96,29.09,7.0,NW,20.7,32.2,N/A,Rain,Light Rain,310,2013-11-01 09:35:00
5:55 AM,45.3,44.4,97,29.11,10.0,WNW,20.7,26.5,N/A,,Light Drizzle,300,2013-11-01 09:55:00
6:15 AM,44.8,43.7,96,29.13,10.0,NW,17.3,29.9,N/A,Rain,Light Rain,310,2013-11-01 10:15:00
6:35 AM,44.6,43.5,96,29.14,10.0,NW,17.3,29.9,N/A,,Overcast,310,2013-11-01 10:35:00
6:54 AM,44.6,43.3,95,29.16,10.0,NW,18.4,28.8,N/A,,Overcast,310,2013-11-01 10:54:00
7:15 AM,44.2,43.3,97,29.18,10.0,WNW,17.3,27.6,N/A,,Overcast,300,2013-11-01 11:15:00
7:35 AM,43.9,43.0,97,29.19,10.0,NW,19.6,23.0,N/A,,Overcast,310,2013-11-01 11:35:00
7:54 AM,43.9,42.8,96,29.21,10.0,WNW,13.8,23.0,N/A,,Overcast,300,2013-11-01 11:54:00
8:15 AM,43.9,42.4,95,29.23,10.0,NW,17.3,28.8,N/A,,Overcast,310,2013-11-01 12:15:00
8:35 AM,43.7,42.4,95,29.25,10.0,WNW,15.0,28.8,N/A,,Overcast,300,2013-11-01 12:35:00
8:55 AM,43.7,42.3,95,29.27,10.0,NW,18.4,26.5,N/A,,Overcast,310,2013-11-01 12:55:00
9:15 AM,43.7,41.9,93,29.29,10.0,NW,13.8,24.2,N/A,,Overcast,310,2013-11-01 13:15:00
9:35 AM,43.3,41.7,94,29.31,10.0,NW,19.6,27.6,N/A,,Overcast,320,2013-11-01 13:35:00
9:55 AM,43.7,41.4,91,29.32,10.0,NW,13.8,23.0,N/A,,Drizzle,320,2013-11-01 13:55:00
10:15 AM,43.3,41.5,93,29.33,10.0,NW,12.7,-,N/A,,Overcast,320,2013-11-01 14:15:00
10:34 AM,43.7,41.9,93,29.34,7.0,NW,12.7,18.4,N/A,,Overcast,320,2013-11-01 14:34:00
10:55 AM,43.7,42.3,95,29.35,7.0,NW,8.1,-,N/A,,Light Drizzle,320,2013-11-01 14:55:00
11:15 AM,43.7,42.1,94,29.37,5.0,NW,11.5,-,N/A,,Overcast,310,2013-11-01 15:15:00
11:35 AM,43.5,42.3,95,29.38,5.0,WNW,10.4,16.1,N/A,,Overcast,300,2013-11-01 15:35:00
11:55 AM,43.7,42.3,95,29.39,7.0,NW,12.7,-,N/A,Rain,Light Rain,310,2013-11-01 15:55:00
12:14 PM,44.2,42.8,95,29.40,10.0,NW,9.2,-,N/A,Rain,Light Rain,310,2013-11-01 16:14:00
12:35 PM,44.2,42.3,93,29.42,10.0,WNW,10.4,-,N/A,,Overcast,300,2013-11-01 16:35:00
12:55 PM,44.4,41.9,91,29.43,10.0,NW,9.2,-,N/A,,Overcast,320,2013-11-01 16:55:00
1:14 PM,44.1,41.9,92,29.44,10.0,NW,8.1,-,N/A,,Overcast,320,2013-11-01 17:14:00
1:35 PM,43.3,41.0,91,29.44,10.0,NNW,12.7,-,N/A,,Overcast,330,2013-11-01 17:35:00
1:55 PM,44.1,41.2,90,29.45,10.0,NNW,10.4,16.1,N/A,,Overcast,330,2013-11-01 17:55:00
2:15 PM,43.7,41.0,90,29.45,10.0,NNW,10.4,-,N/A,,Overcast,330,2013-11-01 18:15:00
2:35 PM,43.9,41.2,90,29.45,10.0,NNW,9.2,-,N/A,,Overcast,330,2013-11-01 18:35:00
2:55 PM,43.9,40.8,89,29.46,10.0,NNW,6.9,-,N/A,,Overcast,330,2013-11-01 18:55:00
3:15 PM,43.5,40.1,88,29.47,10.0,NNW,10.4,17.3,N/A,,Overcast,330,2013-11-01 19:15:00
3:35 PM,43.7,40.5,88,29.48,10.0,NW,9.2,-,N/A,,Overcast,320,2013-11-01 19:35:00
3:55 PM,43.2,40.1,89,29.48,10.0,NNW,10.4,18.4,N/A,,Overcast,330,2013-11-01 19:55:00
4:15 PM,43.0,40.1,90,29.50,10.0,NNW,11.5,16.1,N/A,,Overcast,340,2013-11-01 20:15:00
4:34 PM,42.1,38.8,88,29.51,10.0,NNW,9.2,19.6,N/A,,Overcast,340,2013-11-01 20:34:00
4:55 PM,42.1,38.8,88,29.53,10.0,NNW,6.9,-,N/A,,Overcast,340,2013-11-01 20:55:00
5:15 PM,42.1,38.5,87,29.54,10.0,NNW,5.8,-,N/A,,Overcast,340,2013-11-01 21:15:00
5:34 PM,42.1,38.7,88,29.55,10.0,North,8.1,-,N/A,,Overcast,350,2013-11-01 21:34:00
5:55 PM,41.4,37.6,86,29.56,10.0,NNW,9.2,16.1,N/A,,Overcast,340,2013-11-01 21:55:00
6:15 PM,41.0,36.5,84,29.57,10.0,NNW,4.6,-,N/A,,Overcast,340,2013-11-01 22:15:00
6:35 PM,40.6,36.5,85,29.58,10.0,NNW,3.5,-,N/A,,Overcast,330,2013-11-01 22:35:00
6:55 PM,40.5,36.5,86,29.59,10.0,NNW,5.8,-,N/A,,Overcast,330,2013-11-01 22:55:00
7:15 PM,40.5,36.5,86,29.60,10.0,NW,4.6,-,N/A,,Overcast,320,2013-11-01 23:15:00
7:35 PM,40.5,36.5,86,29.61,10.0,WNW,3.5,-,N/A,,Overcast,300,2013-11-01 23:35:00
7:55 PM,40.5,36.7,86,29.62,10.0,WNW,3.5,-,N/A,,Overcast,300,2013-11-01 23:55:00
8:14 PM,40.5,36.7,86,29.63,10.0,Calm,Calm,-,N/A,,Overcast,0,2013-11-02 00:14:00
8:35 PM,40.5,37.0,88,29.63,10.0,Calm,Calm,-,N/A,,Overcast,0,2013-11-02 00:35:00
8:55 PM,40.3,37.0,88,29.64,10.0,NNW,4.6,-,N/A,,Overcast,330,2013-11-02 00:55:00
9:14 PM,40.1,37.0,89,29.64,10.0,NNW,3.5,-,N/A,,Overcast,330,2013-11-02 01:14:00
9:35 PM,40.1,37.0,89,29.65,10.0,NNW,4.6,-,N/A,,Overcast,340,2013-11-02 01:35:00
9:55 PM,39.7,36.3,88,29.65,10.0,North,6.9,-,N/A,,Overcast,350,2013-11-02 01:55:00
10:14 PM,39.2,35.6,87,29.66,10.0,NNW,3.5,-,N/A,,Overcast,340,2013-11-02 02:14:00
10:35 PM,39.2,35.2,86,29.67,10.0,North,5.8,-,N/A,,Overcast,350,2013-11-02 02:35:00
10:55 PM,38.3,34.9,87,29.67,10.0,North,4.6,-,N/A,,Mostly Cloudy,350,2013-11-02 02:55:00
11:15 PM,38.3,34.7,87,29.68,10.0,NNW,4.6,-,N/A,,Scattered Clouds,340,2013-11-02 03:15:00
11:35 PM,37.6,34.5,89,29.68,10.0,NNW,5.8,-,N/A,,Scattered Clouds,330,2013-11-02 03:35:00
11:54 PM,38.1,34.3,86,29.68,10.0,NNW,6.9,-,N/A,,Light Drizzle,340,2013-11-02 03:54:00